Regional Weather Roundup
Issued by NWS State College, PA

Home | Current Version | Previous Version | Text Only | Print | Product List | Glossary Off
Versions: 1 2 3 4 5 6 7 8 9 10 11 12 13 14 15 16 17 18 19 20 21 22 23 24 25 26 27 28 29 30 31 32 33 34 35 36 37 38 39 40 41 42 43 44 45 46 47 48 49 50

000
ASUS41 KCTP 280803
RWRCTP

REGIONAL WEATHER ROUNDUP
NATIONAL WEATHER SERVICE STATE COLLEGE PA
400 AM EDT FRI AUG 28 2015

Note: "fair" indicates few or no clouds below 12,000 feet with no
significant weather and/or obstructions to visibility.

* = STATION THAT DOES NOT REPORT PRECIPITATION /E.G. RAIN...SNOW...ETC/
    THUNDER OR FOG.

PAZ002>004-007>009-013>016-020>023-029>032-280900-
WESTERN PENNSYLVANIA

CITY           SKY/WX    TMP DP  RH WIND       PRES   REMARKS
ERIE           CLEAR     55  51  86 S5        30.16F
MEADVILLE      CLEAR     52  49  89 CALM      30.18S
FRANKLIN*      PTCLDY    48  46  93 E5        30.20S
NEW CASTLE     FAIR      51  51 100 CALM      30.19S FOG
BEAVER COUNTY  NOT AVBL
BUTLER*        CLEAR     52  50  93 NE3       30.20S
PITTSBURGH INT CLEAR     58  54  86 CALM      30.17S
PITTSBURGH     CLEAR     59  52  77 E3        30.17S
INDIANA*       PTCLDY    54  52  94 CALM      30.22S
LATROBE        NOT AVBL
WASHINGTON CO* CLOUDY    48  48 100 CALM      30.18S VSB 1/2
$$

PAZ004>006-010>012-017>019-024>028-033>037-041-042-045-046-049>053-280900-
CENTRAL PENNSYLVANIA

CITY           SKY/WX    TMP DP  RH WIND       PRES   REMARKS
BRADFORD       FOG       42  40  92 SE3       30.20S VSB 1/4
DUBOIS         CLEAR     53  51  93 CALM      30.19S FOG
CLEARFIELD     PTCLDY    51  48  89 N3        30.20S
JOHNSTOWN      CLEAR     53  50  89 CALM      30.20S
ALTOONA        CLEAR     52  49  89 CALM      30.20S FOG
STATE COLLEGE  PTCLDY    55  54  97 CALM      30.19R
WILLIAMSPORT   CLOUDY    59  56  89 CALM      30.17S
SELINSGROVE    CLEAR     56  54  93 CALM      30.17S
FT INDIANTOWN  MOCLDY    59  57  93 CALM      30.16S
CAPITAL CITY   FAIR      59  56  89 CALM      30.16S
HARRISBURG     FAIR      61  57  87 CALM      30.15S
YORK           CLEAR     53  51  93 CALM      30.16S
$$

PAZ038>040-043-044-047-048-054-055-060>062-067>071-280900-
EASTERN PENNSYLVANIA

CITY           SKY/WX    TMP DP  RH WIND       PRES   REMARKS
SCRANTON       CLEAR     55  50  83 E7        30.18S
MOUNT POCONO   CLEAR     49  48  97 CALM      30.19S
ALLENTOWN      PTCLDY    54  52  93 CALM      30.17S
QUAKERTOWN*    SUNNY     52  50  93 CALM      30.17S
READING        CLOUDY    59  55  87 NW5       30.15S
LANCASTER      CLEAR     56  55  97 CALM      30.16S
COATESVILLE    SUNNY     59  55  88 NW3       30.16F
POTTSTOWN      CLEAR     54  53  97 CALM      30.17S
BLUE BELL      CLEAR     54  54 100 CALM      30.15S
DOYLESTOWN     CLEAR     57  54  89 NE5       30.15S
WILLOW GROVE   NOT AVBL
NORTH PHILA    CLEAR     62  52  69 N6        30.16S
PHILADELPHIA   CLEAR     66  54  65 CALM      30.15S
$$


USA.gov is the U.S. government's official web portal to all federal, state and local government web resources and services.